This is the latest recevied weather packets stored in our database for station/object SA6BET-2. If no packets are shown the sender has not sent any weather packets the latest 10 day(s).
| Time | Temp. | Humidity | Pressure | Rain* | Wind** | Luminosity | Snow |
|---|---|---|---|---|---|---|---|
| 1787459534 | 24.44° C | 100% | 1017.2 hPa | - | - | - | - |
| 1787458634 | 24.44° C | 100% | 1017.1 hPa | - | - | - | - |
| 1787457734 | 24.44° C | 100% | 1017.1 hPa | - | - | - | - |
| 1787456834 | 25° C | 100% | 1017.1 hPa | - | - | - | - |
| 1787455934 | 25° C | 100% | 1017.2 hPa | - | - | - | - |
| 1787455033 | 25° C | 100% | 1017.2 hPa | - | - | - | - |
| 1787454133 | 25° C | 100% | 1017.4 hPa | - | - | - | - |
| 1787453233 | 25° C | 100% | 1017.3 hPa | - | - | - | - |
| 1787452333 | 25° C | 100% | 1017.3 hPa | - | - | - | - |
| 1787451433 | 25.56° C | 100% | 1017.4 hPa | - | - | - | - |
| 1787450532 | 26.11° C | 100% | 1017.4 hPa | - | - | - | - |
| 1787449632 | 25.56° C | 100% | 1017.4 hPa | - | - | - | - |
| 1787448732 | 26.11° C | 100% | 1017.3 hPa | - | - | - | - |
| 1787447832 | 26.11° C | 100% | 1017.4 hPa | - | - | - | - |
| 1787446932 | 26.11° C | 100% | 1017.3 hPa | - | - | - | - |
| 1787446028 | 26.11° C | 100% | 1017.2 hPa | - | - | - | - |
| 1787445128 | 26.67° C | 100% | 1017.3 hPa | - | - | - | - |
| 1787444228 | 26.67° C | 100% | 1017.5 hPa | - | - | - | - |
| 1787443327 | 27.22° C | 100% | 1017.6 hPa | - | - | - | - |
| 1787442427 | 27.22° C | 100% | 1017.7 hPa | - | - | - | - |
| 1787441527 | 27.22° C | 100% | 1017.8 hPa | - | - | - | - |
| 1787440627 | 27.22° C | 100% | 1017.8 hPa | - | - | - | - |
| 1787439727 | 27.22° C | 100% | 1017.8 hPa | - | - | - | - |
| 1787438826 | 27.22° C | 100% | 1017.8 hPa | - | - | - | - |
| 1787437926 | 27.78° C | 100% | 1017.8 hPa | - | - | - | - |
* Rain since midnight (hover to see other rain measurements)
** Current wind speed in m/s (hover to see current wind gust speed)